Year,Month,Day,Hour,Minute,Value (Times are PST for insolation in W/m^2)
2017,04,29,00,00,0.00
2017,04,29,00,01,0.00
2017,04,29,00,02,0.00
2017,04,29,00,03,0.00
2017,04,29,00,04,0.00
2017,04,29,00,05,0.00
2017,04,29,00,06,0.00
2017,04,29,00,07,0.00
2017,04,29,00,08,0.00
2017,04,29,00,09,0.00
2017,04,29,00,10,0.00
2017,04,29,00,11,0.00
2017,04,29,00,12,0.00
2017,04,29,00,13,0.00
2017,04,29,00,14,0.00
2017,04,29,00,15,0.00
2017,04,29,00,16,0.00
2017,04,29,00,17,0.00
2017,04,29,00,18,0.00
2017,04,29,00,19,0.00
2017,04,29,00,20,0.00
2017,04,29,00,21,0.00
2017,04,29,00,22,0.00
2017,04,29,00,23,0.00
2017,04,29,00,24,0.00
2017,04,29,00,25,0.00
2017,04,29,00,26,0.00
2017,04,29,00,27,0.00
2017,04,29,00,28,0.00
2017,04,29,00,29,0.00
2017,04,29,00,30,0.00
2017,04,29,00,31,0.00
2017,04,29,00,32,0.00
2017,04,29,00,33,0.00
2017,04,29,00,34,0.00
2017,04,29,00,35,0.00
2017,04,29,00,36,0.00
2017,04,29,00,37,0.00
2017,04,29,00,38,0.00
2017,04,29,00,39,0.00
2017,04,29,00,40,0.00
2017,04,29,00,41,0.00
2017,04,29,00,42,0.00
2017,04,29,00,43,0.00
2017,04,29,00,44,0.00
2017,04,29,00,45,0.00
2017,04,29,00,46,0.00
2017,04,29,00,47,0.00
2017,04,29,00,48,0.00
2017,04,29,00,49,0.00
2017,04,29,00,50,0.00
2017,04,29,00,51,0.00
2017,04,29,00,52,0.00
2017,04,29,00,53,0.00
2017,04,29,00,54,0.00
2017,04,29,00,55,0.00
2017,04,29,00,56,0.00
2017,04,29,00,57,0.00
2017,04,29,00,58,0.00
2017,04,29,00,59,0.00
2017,04,29,01,00,0.00
2017,04,29,01,01,0.00
2017,04,29,01,02,0.00
2017,04,29,01,03,0.00
2017,04,29,01,04,0.00
2017,04,29,01,05,0.00
2017,04,29,01,06,0.00
2017,04,29,01,07,0.00
2017,04,29,01,08,0.00
2017,04,29,01,09,0.00
2017,04,29,01,10,0.00
2017,04,29,01,11,0.00
2017,04,29,01,12,0.00
2017,04,29,01,13,0.00
2017,04,29,01,14,0.00
2017,04,29,01,15,0.00
2017,04,29,01,16,0.00
2017,04,29,01,17,0.00
2017,04,29,01,18,0.00
2017,04,29,01,19,0.00
2017,04,29,01,20,0.00
2017,04,29,01,21,0.00
2017,04,29,01,22,0.00
2017,04,29,01,23,0.00
2017,04,29,01,24,0.00
2017,04,29,01,25,0.00
2017,04,29,01,26,0.00
2017,04,29,01,27,0.00
2017,04,29,01,28,0.00
2017,04,29,01,29,0.00
2017,04,29,01,30,0.00
2017,04,29,01,31,0.00
2017,04,29,01,32,0.00
2017,04,29,01,33,0.00
2017,04,29,01,34,0.00
2017,04,29,01,35,0.00
2017,04,29,01,36,0.00
2017,04,29,01,37,0.00
2017,04,29,01,38,0.00
2017,04,29,01,39,0.00
2017,04,29,01,40,0.00
2017,04,29,01,41,0.00
2017,04,29,01,42,0.00
2017,04,29,01,43,0.00
2017,04,29,01,44,0.00
2017,04,29,01,45,0.00
2017,04,29,01,46,0.00
2017,04,29,01,47,0.00
2017,04,29,01,48,0.00
2017,04,29,01,49,0.00
2017,04,29,01,50,0.00
2017,04,29,01,51,0.00
2017,04,29,01,52,0.00
2017,04,29,01,53,0.00
2017,04,29,01,54,0.00
2017,04,29,01,55,0.00
2017,04,29,01,56,0.00
2017,04,29,01,57,0.00
2017,04,29,01,58,0.00
2017,04,29,01,59,0.00
2017,04,29,02,00,0.00
2017,04,29,02,01,0.00
2017,04,29,02,02,0.00
2017,04,29,02,03,0.00
2017,04,29,02,04,0.00
2017,04,29,02,05,0.00
2017,04,29,02,06,0.00
2017,04,29,02,07,0.00
2017,04,29,02,08,0.00
2017,04,29,02,09,0.00
2017,04,29,02,10,0.00
2017,04,29,02,11,0.00
2017,04,29,02,12,0.00
2017,04,29,02,13,0.00
2017,04,29,02,14,0.00
2017,04,29,02,15,0.00
2017,04,29,02,16,0.00
2017,04,29,02,17,0.00
2017,04,29,02,18,0.00
2017,04,29,02,19,0.00
2017,04,29,02,20,0.00
2017,04,29,02,21,0.00
2017,04,29,02,22,0.00
2017,04,29,02,23,0.00
2017,04,29,02,24,0.00
2017,04,29,02,25,0.00
2017,04,29,02,26,0.00
2017,04,29,02,27,0.00
2017,04,29,02,28,0.00
2017,04,29,02,29,0.00
2017,04,29,02,30,0.00
2017,04,29,02,31,0.00
2017,04,29,02,32,0.00
2017,04,29,02,33,0.00
2017,04,29,02,34,0.00
2017,04,29,02,35,0.00
2017,04,29,02,36,0.00
2017,04,29,02,37,0.00
2017,04,29,02,38,0.00
2017,04,29,02,39,0.00
2017,04,29,02,40,0.00
2017,04,29,02,41,0.00
2017,04,29,02,42,0.00
2017,04,29,02,43,0.00
2017,04,29,02,44,0.00
2017,04,29,02,45,0.00
2017,04,29,02,46,0.00
2017,04,29,02,47,0.00
2017,04,29,02,48,0.00
2017,04,29,02,49,0.00
2017,04,29,02,50,0.00
2017,04,29,02,51,0.00
2017,04,29,02,52,0.00
2017,04,29,02,53,0.00
2017,04,29,02,54,0.00
2017,04,29,02,55,0.00
2017,04,29,02,56,0.00
2017,04,29,02,57,0.00
2017,04,29,02,58,0.00
2017,04,29,02,59,0.00
2017,04,29,03,00,0.00
2017,04,29,03,01,0.00
2017,04,29,03,02,0.00
2017,04,29,03,03,0.00
2017,04,29,03,04,0.00
2017,04,29,03,05,0.00
2017,04,29,03,06,0.00
2017,04,29,03,07,0.00
2017,04,29,03,08,0.00
2017,04,29,03,09,0.00
2017,04,29,03,10,0.00
2017,04,29,03,11,0.00
2017,04,29,03,12,0.00
2017,04,29,03,13,0.00
2017,04,29,03,14,0.00
2017,04,29,03,15,0.00
2017,04,29,03,16,0.00
2017,04,29,03,17,0.00
2017,04,29,03,18,0.00
2017,04,29,03,19,0.00
2017,04,29,03,20,0.00
2017,04,29,03,21,0.00
2017,04,29,03,22,0.00
2017,04,29,03,23,0.00
2017,04,29,03,24,0.00
2017,04,29,03,25,0.00
2017,04,29,03,26,0.00
2017,04,29,03,27,0.00
2017,04,29,03,28,0.00
2017,04,29,03,29,0.00
2017,04,29,03,30,0.00
2017,04,29,03,31,0.00
2017,04,29,03,32,0.00
2017,04,29,03,33,0.00
2017,04,29,03,34,0.00
2017,04,29,03,35,0.00
2017,04,29,03,36,0.00
2017,04,29,03,37,0.00
2017,04,29,03,38,0.00
2017,04,29,03,39,0.00
2017,04,29,03,40,0.00
2017,04,29,03,41,0.00
2017,04,29,03,42,0.00
2017,04,29,03,43,0.00
2017,04,29,03,44,0.00
2017,04,29,03,45,0.00
2017,04,29,03,46,0.00
2017,04,29,03,47,0.00
2017,04,29,03,48,0.00
2017,04,29,03,49,0.00
2017,04,29,03,50,0.00
2017,04,29,03,51,0.00
2017,04,29,03,52,0.00
2017,04,29,03,53,0.00
2017,04,29,03,54,0.00
2017,04,29,03,55,0.00
2017,04,29,03,56,0.00
2017,04,29,03,57,0.00
2017,04,29,03,58,0.00
2017,04,29,03,59,0.00
2017,04,29,04,00,0.00
2017,04,29,04,01,0.00
2017,04,29,04,02,0.00
2017,04,29,04,03,0.00
2017,04,29,04,04,0.00
2017,04,29,04,05,0.00
2017,04,29,04,06,0.00
2017,04,29,04,07,0.00
2017,04,29,04,08,0.00
2017,04,29,04,09,0.00
2017,04,29,04,10,0.00
2017,04,29,04,11,0.00
2017,04,29,04,12,0.00
2017,04,29,04,13,0.00
2017,04,29,04,14,0.00
2017,04,29,04,15,0.00
2017,04,29,04,16,0.00
2017,04,29,04,17,0.00
2017,04,29,04,18,0.00
2017,04,29,04,19,0.00
2017,04,29,04,20,0.00
2017,04,29,04,21,0.00
2017,04,29,04,22,0.00
2017,04,29,04,23,0.00
2017,04,29,04,24,0.00
2017,04,29,04,25,0.00
2017,04,29,04,26,0.00
2017,04,29,04,27,0.00
2017,04,29,04,28,0.00
2017,04,29,04,29,0.00
2017,04,29,04,30,0.00
2017,04,29,04,31,0.00
2017,04,29,04,32,0.00
2017,04,29,04,33,0.00
2017,04,29,04,34,0.00
2017,04,29,04,35,0.00
2017,04,29,04,36,0.00
2017,04,29,04,37,0.00
2017,04,29,04,38,0.00
2017,04,29,04,39,0.00
2017,04,29,04,40,0.00
2017,04,29,04,41,0.00
2017,04,29,04,42,0.00
2017,04,29,04,43,0.00
2017,04,29,04,44,0.00
2017,04,29,04,45,0.00
2017,04,29,04,46,0.00
2017,04,29,04,47,0.00
2017,04,29,04,48,0.00
2017,04,29,04,49,0.00
2017,04,29,04,50,0.00
2017,04,29,04,51,0.00
2017,04,29,04,52,0.00
2017,04,29,04,53,0.00
2017,04,29,04,54,0.00
2017,04,29,04,55,0.00
2017,04,29,04,56,0.00
2017,04,29,04,57,0.00
2017,04,29,04,58,0.00
2017,04,29,04,59,0.00
2017,04,29,05,00,0.00
2017,04,29,05,01,0.00
2017,04,29,05,02,0.00
2017,04,29,05,03,0.00
2017,04,29,05,04,0.00
2017,04,29,05,05,0.00
2017,04,29,05,06,0.00
2017,04,29,05,07,0.00
2017,04,29,05,08,0.00
2017,04,29,05,09,0.00
2017,04,29,05,10,0.00
2017,04,29,05,11,0.00
2017,04,29,05,12,0.00
2017,04,29,05,13,0.00
2017,04,29,05,14,0.00
2017,04,29,05,15,0.00
2017,04,29,05,16,0.00
2017,04,29,05,17,0.00
2017,04,29,05,18,0.00
2017,04,29,05,19,0.00
2017,04,29,05,20,0.00
2017,04,29,05,21,0.00
2017,04,29,05,22,0.00
2017,04,29,05,23,0.00
2017,04,29,05,24,0.00
2017,04,29,05,25,0.00
2017,04,29,05,26,0.00
2017,04,29,05,27,0.00
2017,04,29,05,28,0.00
2017,04,29,05,29,0.00
2017,04,29,05,30,0.00
2017,04,29,05,31,0.00
2017,04,29,05,32,0.00
2017,04,29,05,33,0.00
2017,04,29,05,34,0.00
2017,04,29,05,35,0.00
2017,04,29,05,36,0.00
2017,04,29,05,37,0.00
2017,04,29,05,38,0.00
2017,04,29,05,39,0.00
2017,04,29,05,40,0.00
2017,04,29,05,41,0.00
2017,04,29,05,42,0.00
2017,04,29,05,43,0.00
2017,04,29,05,44,0.00
2017,04,29,05,45,0.00
2017,04,29,05,46,0.00
2017,04,29,05,47,0.00
2017,04,29,05,48,0.00
2017,04,29,05,49,0.00
2017,04,29,05,50,0.00
2017,04,29,05,51,0.00
2017,04,29,05,52,0.00
2017,04,29,05,53,0.00
2017,04,29,05,54,0.00
2017,04,29,05,55,0.00
2017,04,29,05,56,0.00
2017,04,29,05,57,0.00
2017,04,29,05,58,0.00
2017,04,29,05,59,0.00
2017,04,29,06,00,0.00
2017,04,29,06,01,0.00
2017,04,29,06,02,0.00
2017,04,29,06,03,0.00
2017,04,29,06,04,3.50
2017,04,29,06,05,5.00
2017,04,29,06,06,5.00
2017,04,29,06,07,5.00
2017,04,29,06,08,5.00
2017,04,29,06,09,6.90
2017,04,29,06,10,7.00
2017,04,29,06,11,7.00
2017,04,29,06,12,7.00
2017,04,29,06,13,7.00
2017,04,29,06,14,7.00
2017,04,29,06,15,7.00
2017,04,29,06,16,7.00
2017,04,29,06,17,7.00
2017,04,29,06,18,7.00
2017,04,29,06,19,7.00
2017,04,29,06,20,7.90
2017,04,29,06,21,9.00
2017,04,29,06,22,9.00
2017,04,29,06,23,9.00
2017,04,29,06,24,10.20
2017,04,29,06,25,11.00
2017,04,29,06,26,11.00
2017,04,29,06,27,11.00
2017,04,29,06,28,11.00
2017,04,29,06,29,11.80
2017,04,29,06,30,12.00
2017,04,29,06,31,12.00
2017,04,29,06,32,12.00
2017,04,29,06,33,13.90
2017,04,29,06,34,14.00
2017,04,29,06,35,14.00
2017,04,29,06,36,14.30
2017,04,29,06,37,16.00
2017,04,29,06,38,16.40
2017,04,29,06,39,18.20
2017,04,29,06,40,19.00
2017,04,29,06,41,19.70
2017,04,29,06,42,21.00
2017,04,29,06,43,21.80
2017,04,29,06,44,23.90
2017,04,29,06,45,25.00
2017,04,29,06,46,25.50
2017,04,29,06,47,26.00
2017,04,29,06,48,27.30
2017,04,29,06,49,28.00
2017,04,29,06,50,29.50
2017,04,29,06,51,30.00
2017,04,29,06,52,30.00
2017,04,29,06,53,31.70
2017,04,29,06,54,32.00
2017,04,29,06,55,32.90
2017,04,29,06,56,33.00
2017,04,29,06,57,33.00
2017,04,29,06,58,33.00
2017,04,29,06,59,33.00
2017,04,29,07,00,33.00
2017,04,29,07,01,33.00
2017,04,29,07,02,33.00
2017,04,29,07,03,33.00
2017,04,29,07,04,33.70
2017,04,29,07,05,35.00
2017,04,29,07,06,35.00
2017,04,29,07,07,35.00
2017,04,29,07,08,36.00
2017,04,29,07,09,37.00
2017,04,29,07,10,37.00
2017,04,29,07,11,38.30
2017,04,29,07,12,39.00
2017,04,29,07,13,39.80
2017,04,29,07,14,40.00
2017,04,29,07,15,41.60
2017,04,29,07,16,42.00
2017,04,29,07,17,43.80
2017,04,29,07,18,44.00
2017,04,29,07,19,44.00
2017,04,29,07,20,46.00
2017,04,29,07,21,46.00
2017,04,29,07,22,46.00
2017,04,29,07,23,46.00
2017,04,29,07,24,46.00
2017,04,29,07,25,46.00
2017,04,29,07,26,46.00
2017,04,29,07,27,46.00
2017,04,29,07,28,46.00
2017,04,29,07,29,46.40
2017,04,29,07,30,47.00
2017,04,29,07,31,48.00
2017,04,29,07,32,49.00
2017,04,29,07,33,50.20
2017,04,29,07,34,51.00
2017,04,29,07,35,52.40
2017,04,29,07,36,53.80
2017,04,29,07,37,55.60
2017,04,29,07,38,56.00
2017,04,29,07,39,57.70
2017,04,29,07,40,59.80
2017,04,29,07,41,60.00
2017,04,29,07,42,62.00
2017,04,29,07,43,62.00
2017,04,29,07,44,63.00
2017,04,29,07,45,63.00
2017,04,29,07,46,63.40
2017,04,29,07,47,64.50
2017,04,29,07,48,63.00
2017,04,29,07,49,63.00
2017,04,29,07,50,62.70
2017,04,29,07,51,62.00
2017,04,29,07,52,62.00
2017,04,29,07,53,62.00
2017,04,29,07,54,62.00
2017,04,29,07,55,62.50
2017,04,29,07,56,64.30
2017,04,29,07,57,65.00
2017,04,29,07,58,66.30
2017,04,29,07,59,67.00
2017,04,29,08,00,68.50
2017,04,29,08,01,69.00
2017,04,29,08,02,69.00
2017,04,29,08,03,69.00
2017,04,29,08,04,69.00
2017,04,29,08,05,69.00
2017,04,29,08,06,69.00
2017,04,29,08,07,69.00
2017,04,29,08,08,69.00
2017,04,29,08,09,69.00
2017,04,29,08,10,69.20
2017,04,29,08,11,70.00
2017,04,29,08,12,70.60
2017,04,29,08,13,72.00
2017,04,29,08,14,72.80
2017,04,29,08,15,74.00
2017,04,29,08,16,74.00
2017,04,29,08,17,74.00
2017,04,29,08,18,74.00
2017,04,29,08,19,74.00
2017,04,29,08,20,74.00
2017,04,29,08,21,75.40
2017,04,29,08,22,76.00
2017,04,29,08,23,76.80
2017,04,29,08,24,77.00
2017,04,29,08,25,78.70
2017,04,29,08,26,82.60
2017,04,29,08,27,83.90
2017,04,29,08,28,88.00
2017,04,29,08,29,91.20
2017,04,29,08,30,95.30
2017,04,29,08,31,98.60
2017,04,29,08,32,102.40
2017,04,29,08,33,104.80
2017,04,29,08,34,107.00
2017,04,29,08,35,108.30
2017,04,29,08,36,111.70
2017,04,29,08,37,113.00
2017,04,29,08,38,113.40
2017,04,29,08,39,115.00
2017,04,29,08,40,117.00
2017,04,29,08,41,119.70
2017,04,29,08,42,122.20
2017,04,29,08,43,124.30
2017,04,29,08,44,127.10
2017,04,29,08,45,129.40
2017,04,29,08,46,131.50
2017,04,29,08,47,133.60
2017,04,29,08,48,134.00
2017,04,29,08,49,134.00
2017,04,29,08,50,132.10
2017,04,29,08,51,132.00
2017,04,29,08,52,132.00
2017,04,29,08,53,132.00
2017,04,29,08,54,132.00
2017,04,29,08,55,132.30
2017,04,29,08,56,134.20
2017,04,29,08,57,135.00
2017,04,29,08,58,135.60
2017,04,29,08,59,137.70
2017,04,29,09,00,139.00
2017,04,29,09,01,138.10
2017,04,29,09,02,135.60
2017,04,29,09,03,130.50
2017,04,29,09,04,122.10
2017,04,29,09,05,113.80
2017,04,29,09,06,108.40
2017,04,29,09,07,105.60
2017,04,29,09,08,105.00
2017,04,29,09,09,106.50
2017,04,29,09,10,108.60
2017,04,29,09,11,112.40
2017,04,29,09,12,113.90
2017,04,29,09,13,115.90
2017,04,29,09,14,116.00
2017,04,29,09,15,116.00
2017,04,29,09,16,116.00
2017,04,29,09,17,116.00
2017,04,29,09,18,115.60
2017,04,29,09,19,114.00
2017,04,29,09,20,113.80
2017,04,29,09,21,112.40
2017,04,29,09,22,110.30
2017,04,29,09,23,109.00
2017,04,29,09,24,109.90
2017,04,29,09,25,111.00
2017,04,29,09,26,111.00
2017,04,29,09,27,109.90
2017,04,29,09,28,109.00
2017,04,29,09,29,107.70
2017,04,29,09,30,105.60
2017,04,29,09,31,104.30
2017,04,29,09,32,102.50
2017,04,29,09,33,100.40
2017,04,29,09,34,100.00
2017,04,29,09,35,100.00
2017,04,29,09,36,98.20
2017,04,29,09,37,97.80
2017,04,29,09,38,92.80
2017,04,29,09,39,88.00
2017,04,29,09,40,86.30
2017,04,29,09,41,76.00
2017,04,29,09,42,71.20
2017,04,29,09,43,67.90
2017,04,29,09,44,64.10
2017,04,29,09,45,61.30
2017,04,29,09,46,60.00
2017,04,29,09,47,60.00
2017,04,29,09,48,61.00
2017,04,29,09,49,62.00
2017,04,29,09,50,62.00
2017,04,29,09,51,62.00
2017,04,29,09,52,62.00
2017,04,29,09,53,62.00
2017,04,29,09,54,62.00
2017,04,29,09,55,60.50
2017,04,29,09,56,60.00
2017,04,29,09,57,60.00
2017,04,29,09,58,60.00
2017,04,29,09,59,60.00
2017,04,29,10,00,59.90
2017,04,29,10,01,57.80
2017,04,29,10,02,55.80
2017,04,29,10,03,54.20
2017,04,29,10,04,56.00
2017,04,29,10,05,56.00
2017,04,29,10,06,56.00
2017,04,29,10,07,56.00
2017,04,29,10,08,56.00
2017,04,29,10,09,55.20
2017,04,29,10,10,53.50
2017,04,29,10,11,53.00
2017,04,29,10,12,52.00
2017,04,29,10,13,51.00
2017,04,29,10,14,51.00
2017,04,29,10,15,52.30
2017,04,29,10,16,53.70
2017,04,29,10,17,55.50
2017,04,29,10,18,57.50
2017,04,29,10,19,59.60
2017,04,29,10,20,61.70
2017,04,29,10,21,62.00
2017,04,29,10,22,62.00
2017,04,29,10,23,62.00
2017,04,29,10,24,63.00
2017,04,29,10,25,63.00
2017,04,29,10,26,63.00
2017,04,29,10,27,63.00
2017,04,29,10,28,63.40
2017,04,29,10,29,66.20
2017,04,29,10,30,69.00
2017,04,29,10,31,69.30
2017,04,29,10,32,70.00
2017,04,29,10,33,70.00
2017,04,29,10,34,71.00
2017,04,29,10,35,72.00
2017,04,29,10,36,73.10
2017,04,29,10,37,74.00
2017,04,29,10,38,74.00
2017,04,29,10,39,74.00
2017,04,29,10,40,74.00
2017,04,29,10,41,75.50
2017,04,29,10,42,76.00
2017,04,29,10,43,76.00
2017,04,29,10,44,74.20
2017,04,29,10,45,72.10
2017,04,29,10,46,70.00
2017,04,29,10,47,68.80
2017,04,29,10,48,64.80
2017,04,29,10,49,62.90
2017,04,29,10,50,61.60
2017,04,29,10,51,60.50
2017,04,29,10,52,62.20
2017,04,29,10,53,64.20
2017,04,29,10,54,67.70
2017,04,29,10,55,69.00
2017,04,29,10,56,69.00
2017,04,29,10,57,68.10
2017,04,29,10,58,66.00
2017,04,29,10,59,65.00
2017,04,29,11,00,65.00
2017,04,29,11,01,65.00
2017,04,29,11,02,65.00
2017,04,29,11,03,63.60
2017,04,29,11,04,63.00
2017,04,29,11,05,64.60
2017,04,29,11,06,69.20
2017,04,29,11,07,75.40
2017,04,29,11,08,78.80
2017,04,29,11,09,83.00
2017,04,29,11,10,83.10
2017,04,29,11,11,84.00
2017,04,29,11,12,84.30
2017,04,29,11,13,86.80
2017,04,29,11,14,90.80
2017,04,29,11,15,94.00
2017,04,29,11,16,99.10
2017,04,29,11,17,107.20
2017,04,29,11,18,117.80
2017,04,29,11,19,129.80
2017,04,29,11,20,142.40
2017,04,29,11,21,152.50
2017,04,29,11,22,159.90
2017,04,29,11,23,163.00
2017,04,29,11,24,162.30
2017,04,29,11,25,155.80
2017,04,29,11,26,149.50
2017,04,29,11,27,148.00
2017,04,29,11,28,148.00
2017,04,29,11,29,144.60
2017,04,29,11,30,141.30
2017,04,29,11,31,137.20
2017,04,29,11,32,132.00
2017,04,29,11,33,130.10
2017,04,29,11,34,132.50
2017,04,29,11,35,137.30
2017,04,29,11,36,140.30
2017,04,29,11,37,147.70
2017,04,29,11,38,154.50
2017,04,29,11,39,160.10
2017,04,29,11,40,167.00
2017,04,29,11,41,172.90
2017,04,29,11,42,179.10
2017,04,29,11,43,185.20
2017,04,29,11,44,190.60
2017,04,29,11,45,193.00
2017,04,29,11,46,190.00
2017,04,29,11,47,184.80
2017,04,29,11,48,183.00
2017,04,29,11,49,183.00
2017,04,29,11,50,176.10
2017,04,29,11,51,162.70
2017,04,29,11,52,146.40
2017,04,29,11,53,135.90
2017,04,29,11,54,132.10
2017,04,29,11,55,132.00
2017,04,29,11,56,132.10
2017,04,29,11,57,134.10
2017,04,29,11,58,135.90
2017,04,29,11,59,142.60
2017,04,29,12,00,150.80
2017,04,29,12,01,156.00
2017,04,29,12,02,155.70
2017,04,29,12,03,152.60
2017,04,29,12,04,144.60
2017,04,29,12,05,135.90
2017,04,29,12,06,133.00
2017,04,29,12,07,142.20
2017,04,29,12,08,163.30
2017,04,29,12,09,186.60
2017,04,29,12,10,205.40
2017,04,29,12,11,220.30
2017,04,29,12,12,238.30
2017,04,29,12,13,255.80
2017,04,29,12,14,271.20
2017,04,29,12,15,277.40
2017,04,29,12,16,278.00
2017,04,29,12,17,279.00
2017,04,29,12,18,283.00
2017,04,29,12,19,284.80
2017,04,29,12,20,280.30
2017,04,29,12,21,271.90
2017,04,29,12,22,257.20
2017,04,29,12,23,243.50
2017,04,29,12,24,236.00
2017,04,29,12,25,236.90
2017,04,29,12,26,241.40
2017,04,29,12,27,248.00
2017,04,29,12,28,257.30
2017,04,29,12,29,271.50
2017,04,29,12,30,284.30
2017,04,29,12,31,295.10
2017,04,29,12,32,300.20
2017,04,29,12,33,298.50
2017,04,29,12,34,292.30
2017,04,29,12,35,281.40
2017,04,29,12,36,264.30
2017,04,29,12,37,251.90
2017,04,29,12,38,238.90
2017,04,29,12,39,230.70
2017,04,29,12,40,231.90
2017,04,29,12,41,235.80
2017,04,29,12,42,235.90
2017,04,29,12,43,233.60
2017,04,29,12,44,229.90
2017,04,29,12,45,229.00
2017,04,29,12,46,229.70
2017,04,29,12,47,233.00
2017,04,29,12,48,236.30
2017,04,29,12,49,234.70
2017,04,29,12,50,227.30
2017,04,29,12,51,220.90
2017,04,29,12,52,219.00
2017,04,29,12,53,220.60
2017,04,29,12,54,221.00
2017,04,29,12,55,223.40
2017,04,29,12,56,230.90
2017,04,29,12,57,240.70
2017,04,29,12,58,250.40
2017,04,29,12,59,258.20
2017,04,29,13,00,263.20
2017,04,29,13,01,260.60
2017,04,29,13,02,255.50
2017,04,29,13,03,244.20
2017,04,29,13,04,225.90
2017,04,29,13,05,212.30
2017,04,29,13,06,205.40
2017,04,29,13,07,198.90
2017,04,29,13,08,190.60
2017,04,29,13,09,179.20
2017,04,29,13,10,172.80
2017,04,29,13,11,167.20
2017,04,29,13,12,162.60
2017,04,29,13,13,163.80
2017,04,29,13,14,167.00
2017,04,29,13,15,167.00
2017,04,29,13,16,167.00
2017,04,29,13,17,167.00
2017,04,29,13,18,187.20
2017,04,29,13,19,201.40
2017,04,29,13,20,194.40
2017,04,29,13,21,185.70
2017,04,29,13,22,176.20
2017,04,29,13,23,170.00
2017,04,29,13,24,167.30
2017,04,29,13,25,165.30
2017,04,29,13,26,163.10
2017,04,29,13,27,163.00
2017,04,29,13,28,165.10
2017,04,29,13,29,166.60
2017,04,29,13,30,162.30
2017,04,29,13,31,156.30
2017,04,29,13,32,149.00
2017,04,29,13,33,150.70
2017,04,29,13,34,154.40
2017,04,29,13,35,151.70
2017,04,29,13,36,147.90
2017,04,29,13,37,146.90
2017,04,29,13,38,149.40
2017,04,29,13,39,151.00
2017,04,29,13,40,148.10
2017,04,29,13,41,146.00
2017,04,29,13,42,147.90
2017,04,29,13,43,156.10
2017,04,29,13,44,171.40
2017,04,29,13,45,182.90
2017,04,29,13,46,187.40
2017,04,29,13,47,189.70
2017,04,29,13,48,192.60
2017,04,29,13,49,196.60
2017,04,29,13,50,200.00
2017,04,29,13,51,215.20
2017,04,29,13,52,242.00
2017,04,29,13,53,272.30
2017,04,29,13,54,294.70
2017,04,29,13,55,308.10
2017,04,29,13,56,313.80
2017,04,29,13,57,306.60
2017,04,29,13,58,289.60
2017,04,29,13,59,267.20
2017,04,29,14,00,242.20
2017,04,29,14,01,225.20
2017,04,29,14,02,225.90
2017,04,29,14,03,236.60
2017,04,29,14,04,242.90
2017,04,29,14,05,239.80
2017,04,29,14,06,225.70
2017,04,29,14,07,211.90
2017,04,29,14,08,210.50
2017,04,29,14,09,215.20
2017,04,29,14,10,216.00
2017,04,29,14,11,213.40
2017,04,29,14,12,204.90
2017,04,29,14,13,188.80
2017,04,29,14,14,166.10
2017,04,29,14,15,148.50
2017,04,29,14,16,144.80
2017,04,29,14,17,150.20
2017,04,29,14,18,156.80
2017,04,29,14,19,164.20
2017,04,29,14,20,175.20
2017,04,29,14,21,192.10
2017,04,29,14,22,220.90
2017,04,29,14,23,256.30
2017,04,29,14,24,278.30
2017,04,29,14,25,280.90
2017,04,29,14,26,276.10
2017,04,29,14,27,272.10
2017,04,29,14,28,271.00
2017,04,29,14,29,271.00
2017,04,29,14,30,276.70
2017,04,29,14,31,287.40
2017,04,29,14,32,287.60
2017,04,29,14,33,277.60
2017,04,29,14,34,267.90
2017,04,29,14,35,262.20
2017,04,29,14,36,255.40
2017,04,29,14,37,240.10
2017,04,29,14,38,222.00
2017,04,29,14,39,212.40
2017,04,29,14,40,209.80
2017,04,29,14,41,216.80
2017,04,29,14,42,233.80
2017,04,29,14,43,252.20
2017,04,29,14,44,262.00
2017,04,29,14,45,256.70
2017,04,29,14,46,237.30
2017,04,29,14,47,212.20
2017,04,29,14,48,194.30
2017,04,29,14,49,195.40
2017,04,29,14,50,206.20
2017,04,29,14,51,217.50
2017,04,29,14,52,219.10
2017,04,29,14,53,213.10
2017,04,29,14,54,208.00
2017,04,29,14,55,210.20
2017,04,29,14,56,219.10
2017,04,29,14,57,235.40
2017,04,29,14,58,245.50
2017,04,29,14,59,252.60
2017,04,29,15,00,264.50
2017,04,29,15,01,274.20
2017,04,29,15,02,276.20
2017,04,29,15,03,278.10
2017,04,29,15,04,279.00
2017,04,29,15,05,277.70
2017,04,29,15,06,271.30
2017,04,29,15,07,261.50
2017,04,29,15,08,253.20
2017,04,29,15,09,250.00
2017,04,29,15,10,250.00
2017,04,29,15,11,246.90
2017,04,29,15,12,239.20
2017,04,29,15,13,230.10
2017,04,29,15,14,224.40
2017,04,29,15,15,225.60
2017,04,29,15,16,229.10
2017,04,29,15,17,234.60
2017,04,29,15,18,238.40
2017,04,29,15,19,245.00
2017,04,29,15,20,252.30
2017,04,29,15,21,250.20
2017,04,29,15,22,239.50
2017,04,29,15,23,229.70
2017,04,29,15,24,222.10
2017,04,29,15,25,214.30
2017,04,29,15,26,215.60
2017,04,29,15,27,212.80
2017,04,29,15,28,206.10
2017,04,29,15,29,196.30
2017,04,29,15,30,186.90
2017,04,29,15,31,178.30
2017,04,29,15,32,170.10
2017,04,29,15,33,162.60
2017,04,29,15,34,156.30
2017,04,29,15,35,150.20
2017,04,29,15,36,145.60
2017,04,29,15,37,140.90
2017,04,29,15,38,139.00
2017,04,29,15,39,142.60
2017,04,29,15,40,149.20
2017,04,29,15,41,155.00
2017,04,29,15,42,157.70
2017,04,29,15,43,156.20
2017,04,29,15,44,153.10
2017,04,29,15,45,153.00
2017,04,29,15,46,160.40
2017,04,29,15,47,170.00
2017,04,29,15,48,179.60
2017,04,29,15,49,186.10
2017,04,29,15,50,193.90
2017,04,29,15,51,202.20
2017,04,29,15,52,213.00
2017,04,29,15,53,228.40
2017,04,29,15,54,249.10
2017,04,29,15,55,268.50
2017,04,29,15,56,275.80
2017,04,29,15,57,277.00
2017,04,29,15,58,274.90
2017,04,29,15,59,278.20
2017,04,29,16,00,294.00
2017,04,29,16,01,317.40
2017,04,29,16,02,318.70
2017,04,29,16,03,306.90
2017,04,29,16,04,298.00
2017,04,29,16,05,298.80
2017,04,29,16,06,299.00
2017,04,29,16,07,303.50
2017,04,29,16,08,310.60
2017,04,29,16,09,313.00
2017,04,29,16,10,313.20
2017,04,29,16,11,315.10
2017,04,29,16,12,316.40
2017,04,29,16,13,318.50
2017,04,29,16,14,318.90
2017,04,29,16,15,315.70
2017,04,29,16,16,314.30
2017,04,29,16,17,314.90
2017,04,29,16,18,324.90
2017,04,29,16,19,349.20
2017,04,29,16,20,378.60
2017,04,29,16,21,398.00
2017,04,29,16,22,397.80
2017,04,29,16,23,380.40
2017,04,29,16,24,356.80
2017,04,29,16,25,335.40
2017,04,29,16,26,322.50
2017,04,29,16,27,308.70
2017,04,29,16,28,286.30
2017,04,29,16,29,259.50
2017,04,29,16,30,238.00
2017,04,29,16,31,236.00
2017,04,29,16,32,241.90
2017,04,29,16,33,266.20
2017,04,29,16,34,322.60
2017,04,29,16,35,307.60
2017,04,29,16,36,305.50
2017,04,29,16,37,299.20
2017,04,29,16,38,282.00
2017,04,29,16,39,266.00
2017,04,29,16,40,256.50
2017,04,29,16,41,246.40
2017,04,29,16,42,240.00
2017,04,29,16,43,230.00
2017,04,29,16,44,213.30
2017,04,29,16,45,212.10
2017,04,29,16,46,223.10
2017,04,29,16,47,217.40
2017,04,29,16,48,199.00
2017,04,29,16,49,201.20
2017,04,29,16,50,224.80
2017,04,29,16,51,235.10
2017,04,29,16,52,238.60
2017,04,29,16,53,237.20
2017,04,29,16,54,220.90
2017,04,29,16,55,212.90
2017,04,29,16,56,209.40
2017,04,29,16,57,193.30
2017,04,29,16,58,178.00
2017,04,29,16,59,182.00
2017,04,29,17,00,199.20
2017,04,29,17,01,206.00
2017,04,29,17,02,206.40
2017,04,29,17,03,209.10
2017,04,29,17,04,213.40
2017,04,29,17,05,214.00
2017,04,29,17,06,216.10
2017,04,29,17,07,219.10
2017,04,29,17,08,220.60
2017,04,29,17,09,222.30
2017,04,29,17,10,221.70
2017,04,29,17,11,220.30
2017,04,29,17,12,225.30
2017,04,29,17,13,229.40
2017,04,29,17,14,224.10
2017,04,29,17,15,210.30
2017,04,29,17,16,200.50
2017,04,29,17,17,195.20